BMCB-19 Weather Reports


Display with metric or nautical units.
time (UTC)temp
F
wind
direction
speed
MPH
gust
MPH
rain 1hr
in
rain 24hr
in
rain mn
in
humidity
%
barometer
mb
20260510052947 49 0 0.0 0.0 0.00 0.00 0.00 84 1015.2
20260510051948 48 0 0.0 0.0 0.00 0.00 0.00 84 1015.2
20260510050947 48 0 0.0 0.0 0.00 0.00 0.00 84 1015.2
20260510044948 48 0 0.0 0.0 0.00 0.00 0.00 84 1015.2
20260510042948 48 0 0.0 0.0 0.00 0.00 0.00 83 1015.2
20260510041948 49 0 0.0 0.0 0.00 0.00 0.00 83 1015.2
20260510040948 49 0 0.0 0.0 0.00 0.00 0.00 83 1015.1
20260510035948 49 0 0.0 0.0 0.00 0.00 0.00 83 1015.1
20260510034948 49 0 0.0 0.0 0.00 0.00 0.00 82 1015.1
20260510033947 49 0 0.0 0.0 0.00 0.00 0.00 82 1015.2
20260510032948 49 0 0.0 0.0 0.00 0.00 0.00 82 1015.3
20260510031948 50 0 0.0 0.0 0.00 0.00 0.00 80 1015.4
20260510030947 50 0 0.0 0.0 0.00 0.00 0.00 79 1015.3
20260510025948 50 0 0.0 0.0 0.00 0.00 0.00 78 1015.2
20260510024948 51 0 0.0 0.0 0.00 0.00 0.00 78 1015.3
20260510023948 50 0 0.0 0.0 0.00 0.00 0.00 79 1015.5
20260510022947 50 0 0.0 0.0 0.00 0.00 0.00 79 1015.5
20260510021947 50 0 0.0 0.0 0.00 0.00 0.00 79 1015.6
20260510020948 50 0 0.0 0.0 0.00 0.00 0.00 79 1015.6
20260510015948 50 0 0.0 0.0 0.00 0.00 0.00 78 1015.6
20260510014947 51 0 0.0 0.0 0.00 0.00 0.00 77 1015.6
20260510013948 51 0 0.0 0.0 0.00 0.00 0.00 77 1015.6
20260510012948 51 0 0.0 0.0 0.00 0.00 0.00 76 1015.7
20260510010948 51 0 0.0 0.0 0.00 0.00 0.00 75 1015.9
20260510002948 52 0 0.0 0.0 0.00 0.00 0.00 73 1016.2
20260510001948 53 0 0.0 0.0 0.00 0.00 0.00 73 1016.3
20260510000948 53 0 0.0 0.0 0.00 0.00 0.00 72 1016.4
20260509235950 53 0 0.0 0.0 0.00 0.00 0.00 71 1016.3
20260509233951 52 0 0.0 0.0 0.00 0.00 0.00 74 1016.4
20260509232950 53 0 0.0 0.0 0.00 0.00 0.00 72 1016.3
20260509231950 54 0 0.0 0.0 0.00 0.00 0.00 70 1016.2
20260509230951 54 0 0.0 0.0 0.00 0.00 0.00 70 1016.4
20260509225950 54 0 0.0 0.0 0.00 0.00 0.00 70 1016.3
20260509224950 54 0 0.0 0.0 0.00 0.00 0.00 70 1016.4
20260509223950 54 0 0.0 0.0 0.00 0.00 0.00 70 1016.6
20260509222950 55 0 0.0 0.0 0.00 0.00 0.00 69 1016.6
20260509221951 55 0 0.0 0.0 0.00 0.00 0.00 69 1016.7
20260509220951 54 0 0.0 0.0 0.00 0.00 0.00 70 1016.7
20260509215951 55 0 0.0 0.0 0.00 0.00 0.00 69 1016.6
20260509214952 55 0 0.0 0.0 0.00 0.00 0.00 68 1016.6
20260509213951 56 0 0.0 0.0 0.00 0.00 0.00 67 1016.5
20260509211951 56 0 0.0 0.0 0.00 0.00 0.00 67 1016.6
20260509205952 57 0 0.0 0.0 0.00 0.00 0.00 66 1016.6
20260509204951 57 0 0.0 0.0 0.00 0.00 0.00 66 1016.6
20260509203952 57 0 0.0 0.0 0.00 0.00 0.00 66 1016.6
20260509202952 58 0 0.0 0.0 0.00 0.00 0.00 65 1016.6
20260509201952 58 0 0.0 0.0 0.00 0.00 0.00 64 1016.5
20260509200952 58 0 0.0 0.0 0.00 0.00 0.00 64 1016.4
20260509195949 59 0 0.0 0.0 0.00 0.00 0.00 63 1016.4
20260509193951 59 0 0.0 0.0 0.00 0.00 0.00 62 1016.3
20260509192950 60 0 0.0 0.0 0.00 0.00 0.00 61 1016.2
20260509191951 60 0 0.0 0.0 0.00 0.00 0.00 61 1016.1
20260509190951 61 0 0.0 0.0 0.00 0.00 0.00 60 1016.0
20260509184951 62 0 0.0 0.0 0.00 0.00 0.00 57 1015.9
20260509183951 63 0 0.0 0.0 0.00 0.00 0.00 55 1015.8
20260509182950 63 0 0.0 0.0 0.00 0.00 0.00 54 1015.8
20260509181951 64 0 0.0 0.0 0.00 0.00 0.00 54 1015.7
20260509180952 64 0 0.0 0.0 0.00 0.00 0.00 53 1015.6
20260509175954 65 0 0.0 0.0 0.00 0.00 0.00 55 1015.5
20260509172951 66 0 0.0 0.0 0.00 0.00 0.00 52 1015.6
20260509171951 66 0 0.0 0.0 0.00 0.00 0.00 52 1015.5
20260509170950 66 0 0.0 0.0 0.00 0.00 0.00 51 1015.4
20260509165950 67 0 0.0 0.0 0.00 0.00 0.00 51 1015.4
20260509164952 68 0 0.0 0.0 0.00 0.00 0.00 53 1015.3
20260509163951 67 0 0.0 0.0 0.00 0.00 0.00 51 1015.4
20260509162950 67 0 0.0 0.0 0.00 0.00 0.00 51 1015.3
20260509161950 68 0 0.0 0.0 0.00 0.00 0.00 50 1015.3
20260509160951 68 0 0.0 0.0 0.00 0.00 0.00 50 1015.3
20260509155951 68 0 0.0 0.0 0.00 0.00 0.00 50 1015.3
20260509154951 68 0 0.0 0.0 0.00 0.00 0.00 50 1015.4
20260509153951 68 0 0.0 0.0 0.00 0.00 0.00 48 1015.3
20260509152951 69 0 0.0 0.0 0.00 0.00 0.00 47 1015.4
20260509151951 69 0 0.0 0.0 0.00 0.00 0.00 49 1015.5
20260509145950 69 0 0.0 0.0 0.00 0.00 0.00 47 1015.6
20260509144954 69 0 0.0 0.0 0.00 0.00 0.00 45 1015.6
20260509143950 69 0 0.0 0.0 0.00 0.00 0.00 45 1015.8
20260509142950 69 0 0.0 0.0 0.00 0.00 0.00 46 1015.8
20260509141951 69 0 0.0 0.0 0.00 0.00 0.00 47 1015.9
20260509140950 68 0 0.0 0.0 0.00 0.00 0.00 47 1016.0
20260509132951 68 0 0.0 0.0 0.00 0.00 0.00 46 1016.4
20260509131950 68 0 0.0 0.0 0.00 0.00 0.00 46 1016.4
20260509130951 68 0 0.0 0.0 0.00 0.00 0.00 44 1016.5
20260509125951 68 0 0.0 0.0 0.00 0.00 0.00 45 1016.5
20260509124951 68 0 0.0 0.0 0.00 0.00 0.00 46 1016.6
20260509123950 68 0 0.0 0.0 0.00 0.00 0.00 47 1016.7
20260509122950 68 0 0.0 0.0 0.00 0.00 0.00 47 1016.9
20260509120951 67 0 0.0 0.0 0.00 0.00 0.00 48 1017.1
20260509115950 67 0 0.0 0.0 0.00 0.00 0.00 47 1017.2
20260509114950 67 0 0.0 0.0 0.00 0.00 0.00 48 1017.3
20260509113950 67 0 0.0 0.0 0.00 0.00 0.00 48 1017.4
20260509112951 66 0 0.0 0.0 0.00 0.00 0.00 50 1017.6
20260509111951 66 0 0.0 0.0 0.00 0.00 0.00 51 1017.6
20260509110951 66 0 0.0 0.0 0.00 0.00 0.00 52 1017.7
20260509105951 66 0 0.0 0.0 0.00 0.00 0.00 53 1017.8
20260509104951 66 0 0.0 0.0 0.00 0.00 0.00 54 1017.9
20260509103950 65 0 0.0 0.0 0.00 0.00 0.00 55 1017.9
20260509102951 65 0 0.0 0.0 0.00 0.00 0.00 54 1018.0
20260509101951 65 0 0.0 0.0 0.00 0.00 0.00 56 1018.1
20260509100951 64 0 0.0 0.0 0.00 0.00 0.00 56 1018.1
20260509095951 64 0 0.0 0.0 0.00 0.00 0.00 56 1018.2
20260509094951 64 0 0.0 0.0 0.00 0.00 0.00 57 1018.2
20260509093951 64 0 0.0 0.0 0.00 0.00 0.00 58 1018.3
20260509092950 63 0 0.0 0.0 0.00 0.00 0.00 59 1018.4
20260509091951 63 0 0.0 0.0 0.00 0.00 0.00 59 1018.3
20260509090952 63 0 0.0 0.0 0.00 0.00 0.00 61 1018.3
20260509085951 62 0 0.0 0.0 0.00 0.00 0.00 62 1018.3
20260509084952 62 0 0.0 0.0 0.00 0.00 0.00 65 1018.3
20260509083952 61 0 0.0 0.0 0.00 0.00 0.00 68 1018.4
20260509082951 61 0 0.0 0.0 0.00 0.00 0.00 66 1018.4
20260509081951 60 0 0.0 0.0 0.00 0.00 0.00 67 1018.5
20260509080951 60 0 0.0 0.0 0.00 0.00 0.00 68 1018.6
20260509075951 59 0 0.0 0.0 0.00 0.00 0.00 68 1018.7
20260509074952 59 0 0.0 0.0 0.00 0.00 0.00 69 1018.7
20260509073951 58 0 0.0 0.0 0.00 0.00 0.00 70 1018.8
20260509072952 58 0 0.0 0.0 0.00 0.00 0.00 70 1018.8
20260509071951 57 0 0.0 0.0 0.00 0.00 0.00 70 1018.8
20260509070952 56 0 0.0 0.0 0.00 0.00 0.00 72 1018.9
20260509065952 56 0 0.0 0.0 0.00 0.00 0.00 74 1019.0
20260509064951 55 0 0.0 0.0 0.00 0.00 0.00 75 1019.1
20260509062951 53 0 0.0 0.0 0.00 0.00 0.00 76 1019.1
20260509055952 51 0 0.0 0.0 0.00 0.00 0.00 77 1019.2
20260509054952 50 0 0.0 0.0 0.00 0.00 0.00 78 1019.2
20260509053952 49 0 0.0 0.0 0.00 0.00 0.00 78 1019.1